www.pogodaiklimat.ru

Погода и климат >> Архив погоды >> Кот-д'Ивуар >> Сассандра


ПОГОДА в Сассандре

  • Прогноз погоды в Сассандре
  • Монитор погоды в Сассандре

АРХИВ ПОГОДЫ в Сассандре

Время (UTC), дата Ветер
(напр.,м/с)
 
Видим.   Явления Облачность Т
(С)
Тd
(С)
f
(%)
Тe
(С)
Тes
(С)
Комфортность P
(гПа)
Po
(гПа)
Тmin
(С)
Tmax
(С)
R
(мм)
R24
(мм)
S
(см)
00 11.06 ЮЗ 2 10 км туман поземный {снег} 8/8 400 м
[]
+25.5 +23.8 90 +35 +35 очень
душно
1013.5 1006.1
06 11.06 З 2 10 км в посл. час дождь 9/9 400 м
[Sc]
+25.0 +23.8 93 +34 +34 очень
душно
1012.8 1005.4 +24.8 0.8
12 11.06 ЮВ 2 10 км {дождь} 9/9 450 м
[Cu med, cong]
+28.0 +26.3 91 +43 +45 опасность
перегрева
1014.6 1007.2 1
18 11.06 В 2 10 км 9/5 450 м
[Cu med, cong Ac und]
+27.2 +24.2 84 +38 +38 очень
душно
1012.1 1004.7 +30.0
00 12.06 В 3 10 км 3/0
[Ac As Ci sp]
+25.5 +23.5 89 +35 +35 очень
душно
1012.8 1005.4
06 12.06 ЮЗ 2 10 км 6/3 400 м
[Cu med, cong Ac trans]
+24.4 +23.2 93 +33 +33 очень
душно
1013.6 1006.1 +24.0
12 12.06 С 3 10 км 9/5 450 м
[Cu med, cong Ac trans]
+29.5 +24.7 75 +42 +46 опасность
перегрева
1015.0 1007.7
18 12.06 СВ 2 10 км 3/3 450 м
[Cu med, cong]
+27.7 +24.3 82 +39 +39 очень
душно
1012.8 1005.4 +30.7
00 13.06 З 2 10 км 1/1 400 м
[Sc]
+24.9 +23.6 92 +34 +34 очень
душно
1015.1 1007.6
06 13.06 ЮЗ 2 10 км 9/6 400 м
[Cu med, cong Ac und]
+23.0 +22.1 95 +31 +31 очень
душно
1014.8 1007.3 +22.9
12 13.06 СВ 3 10 км 4/4 450 м
[Cu med, cong]
+29.8 +24.4 73 +42 +52 опасность
перегрева
1015.7 1008.4
18 13.06 В 2 10 км 1/1 450 м
[Cu med, cong]
+27.7 +23.7 79 +38 +38 очень
душно
1012.6 1005.2 +30.5
21 13.06 ЮЗ 2 10 км 1/0
[Ac trans]
+26.0 +23.8 88 +36 +36 очень
душно
1014.3 1006.9
00 14.06 ЮЗ 2 10 км 1/0
[Ac trans]
+25.5 +24.1 92 +35 +35 очень
душно
1014.8 1007.4
03 14.06 ЮЗ 2 8000 м 4/4 400 м
[Sc]
+22.8 +22.8 100 +31 +31 очень
душно
1013.5 976.6
06 14.06 З 1 10 км 4/0
[Ac As]
+23.5 +22.8 96 +31 +31 очень
душно
1013.8 1006.3 +23.3
12 14.06 Ю 2 10 км 4/4 450 м
[Cu med, cong]
+30.0 +25.4 76 +44 +56 опасность
перегрева
1014.7 1007.4
15 14.06 В 4 10 км 9/3 450 м
[Cb calv Ac trans Ci sp]
+29.9 +25.6 78 +44 +47 опасность
перегрева
1012.3 1005.0
18 14.06 В 2 10 км 9/1 450 м
[Cb cap Ci ing]
+27.5 +24.7 85 +39 +39 очень
душно
1011.6 1004.2 +30.9
21 14.06 Ю 2 10 км 9/5 450 м
[Cu med, cong Ac trans]
+26.1 +24.5 91 +37 +37 очень
душно
1013.9 1006.5
00 15.06 штиль 0 10 км зарница {гроза, дождь} 8/8 400 м
[Cb cap]
+25.5 +24.9 96 +36 +36 очень
душно
1014.2 1006.8 8
03 15.06 В 2 10 км в посл. час дождь 9/9 400 м
[Cu med, cong]
+25.1 +24.2 95 +35 +35 очень
душно
1012.5 1005.1
06 15.06 ЮЗ 2 10 км {дождь} 9/9 400 м
[Cu med, cong]
+24.7 +24.0 96 +34 +34 очень
душно
1013.0 1005.6 +24.6 7
09 15.06 СВ 2 10 км гроза без осадков 9/6 450 м
[Cb cap Ac As]
+27.1 +25.4 90 +39 +41 очень
душно
1014.5 1007.1
12 15.06 СВ 3 10 км {гроза, дождь} 9/5 450 м
[Cu med, cong Ac As]
+26.9 +25.5 92 +39 +43 очень
душно
1014.7 1007.3 4
15 15.06 ЮЗ 2 10 км в посл. час дождь 9/9 400 м
[Cu med, cong]
+25.6 +24.9 96 +36 +38 очень
душно
1013.2 1005.8
18 15.06 З 2 10 км {дождь} 9/9 450 м
[Cu med, cong]
+25.8 +24.5 93 +36 +36 очень
душно
1013.3 1005.9 +28.2 15
21 15.06 СЗ 2 10 км 9/1 450 м
[Sc Ac As]
+25.1 +24.1 94 +35 +35 очень
душно
1015.5 1008.0
00 16.06 ЮЗ 2 10 км 9/1 400 м
[Sc Ci sp]
+25.0 +24.5 97 +35 +35 очень
душно
1015.7 1008.2
03 16.06 Ю 2 10 км 9/0
[Ac As]
+24.5 +23.9 96 +33 +33 очень
душно
1013.7 1006.2
06 16.06 ЮВ 2 10 км 10/1 400 м
[Sc Ac As]
+24.0 +23.9 99 +33 +33 очень
душно
1013.8 1006.3 +23.8 15
09 16.06 ЮЗ 2 10 км 9/3 400 м
[Sc Ac trans]
+26.5 +25.1 92 +38 +41 очень
душно
1015.1 1007.7
12 16.06 С 2 10 км 9/9 450 м
[Cu med, cong]
+27.5 +25.0 86 +39 +41 очень
душно
1015.4 1008.0
15 16.06 С 2 10 км 9/5 450 м
[Cu med, cong Ac trans]
+26.8 +24.5 87 +38 +41 очень
душно
1013.4 1006.0
18 16.06 Ю 1 10 км 9/5 450 м
[Cu med, cong Ac As]
+26.5 +24.1 87 +37 +37 очень
душно
1012.8 1005.4 +28.5
21 16.06 В 1 10 км 9/9 450 м
[Cu med, cong]
+25.5 +24.1 92 +35 +35 очень
душно
1015.1 1007.7
00 17.06 ЮЗ 1 10 км 8/1 400 м
[Sc Ac trans]
+24.8 +23.9 95 +34 +34 очень
душно
1014.6 1007.1
03 17.06 З 3 10 км 4/4 400 м
[Sc]
+24.9 +23.9 94 +34 +34 очень
душно
1012.5 1005.1
06 17.06 ЮЗ 2 10 км 9/9 400 м
[Cu med, cong]
+24.9 +24.0 95 +34 +34 очень
душно
1013.7 1006.3 +24.5
09 17.06 В 1 10 км 10/10 400 м
[Cu med, cong]
+25.5 +24.1 92 +35 +35 очень
душно
1015.6 1008.2
15 17.06 Ю 1 10 км 8/3 450 м
[Cu med, cong Ac trans]
+29.2 +25.7 81 +43 +49 опасность
перегрева
1012.9 1005.6

 

Местоположение метеостанции Сассандра (Кот-д'Ивуар): широта 4.95 долгота -6.08 высота над уровнем моря 66 м.

В архиве по умолчанию представлена погода в Сассандре за последнюю неделю. Архивные данные за месяц целиком и за предыдущие месяцы, начиная с января 2011 года, Вы можете получить, выбрав интересующий диапазон дат из раскрывающегося списка и нажав кнопку "Ввод!".


*Определитесь, кто Вы:
робот инопланетянин человек

Внимание! Время в таблицах - всемирное. Для получения местного времени необходимо прибавить поправку, которая равна 0 ч.

Смотрите также архив погоды в соседних городах и на ближайших метеорологических станциях:

Погода в Сан-Педро (Кот-д'Ивуар) (67 км)
Погода в Ганьоа (Кот-д'Ивуар) (132 км)
Погода в Табу (Кот-д'Ивуар) (155 км)
Погода в Далоа (Кот-д'Ивуар) (218 км)
Погода в Ямусукро (Кот-д'Ивуар) (231 км)
Погода в Абиджане (Кот-д'Ивуар) (241 км)
Погода в Димбокро (Кот-д'Ивуар) (243 км)
Погода в Адиаке (Кот-д'Ивуар) (310 км)
Погода в Мане (Кот-д'Ивуар) (314 км)
Погода в Буаке (Кот-д'Ивуар) (329 км)

Пояснения к столбцам:

Ветер - указаны скорость ветра в м/с - средняя за 10 мин, порывы в срок и между сроками (в фигурных скобках) и направление, откуда дует ветер: С - северный, СВ - северо-восточный, В - восточный, ЮВ - юго-восточный, Ю - южный, ЮЗ - юго-западный, З - западный, СЗ - северо-западный.
Видимость - горизонтальная дальность видимости в метрах или километрах. При видимости от 1 до 10 км при отсутствии осадков обычно наблюдается дымка, при ухудшении видимости до 1 км и менее - туман. В сухую погоду видимость может ухудшаться дымом, пылью или мглою.
Явления - указаны атмосферные явления, наблюдавшиеся в срок или в последний час перед сроком; фигурными скобками обозначены явления, наблюдавшиеся между сроками (за 1-3 часа до срока); квадратными скобками обозначены град или гололедные отложения с указанием их диаметра в мм.
Облачность - указаны через наклонную черту общая и нижняя облачность в баллах и высота нижней границы облаков в метрах; квадратными скобками обозначены формы облаков: Ci - перистые, Cs - перисто-слоистые, Cc - перисто-кучевые, Ac - высококучевые, As - высокослоистые, Sc - слоисто-кучевые, Ns - слоисто-дождевые, Cu - кучевые, Cb - кучево-дождевые. Подробнее классификацию облаков см. в Атласе облаков (PDF).
T - Температура воздуха - температура, измеренная на высоте 2 м над землей.
Td - Температура точки росы - температура, при понижении до которой содержащийся в воздухе водяной пар достигнет насыщения.
f - Относительная влажность воздуха - влажноcть воздуха, измеренная на высоте 2 м над землей.
Te - Эффективная температура - температура, которую ощущает одетый по сезону человек в тени. Характеристика душности погоды. При расчете учитывается влияние влажности воздуха и скорости ветра на теплоощущения человека.
Tes - Эффективная температура на солнце - температура, которую ощущает человек, с поправкой на солнечный нагрев. Характеристика знойности погоды. Зависит от высоты солнца над горизонтом, облачности и скорости ветра. Ночью, в пасмурную погоду, а также при ветре 12 м/с и более поправка равна нулю.
P - Атмосферное давление - приведенное к уровню моря атмосферное давление.
Po - Атмосферное давление - измеренное на уровне метеостанции атмосферное давление.
Tmin - Минимальная температура - минимум температуры воздуха на высоте 2 м над землей.
Tmax - Максимальная температура - максимум температуры воздуха на высоте 2 м над землей.
R - Количество осадков - Количество выпавших осадков за период времени, мм. При наведении курсора мыши на число - период времени, за который выпало указанное количество осадков.
R24 - Количество осадков - Количество выпавших осадков за 24 часа, мм.
S - Снежный покров - Высота снежного покрова, см. При наведении курсора мыши на число - состояние снежного покрова и степень покрытия местности в баллах.